Theta_e
299 299 300 300 300 300 300 300 301 301 302 302 302 302 303 305 305 304 304 304 305 310 309 310 311 312 311 314 318 321 326 328 328 327 326 326 324 326 327 326 326 326 327 327 336
299 299 299 300 300 300 300 301 301 301 302 302 302 302 304 308 308 309 310 305 307 313 313 311 310 310 310 313 317 316 319 326 326 325 325 325 324 325 324 324 324 325 326 326 333
305 303 301 300 300 300 301 301 301 301 301 302 302 303 305 312 315 310 310 310 309 308 309 310 307 312 311 312 314 314 318 321 322 322 323 323 323 322 322 323 324 324 325 325 327
307 307 306 305 302 300 300 301 301 301 301 303 303 303 306 317 315 312 312 309 310 311 309 307 310 312 309 310 312 312 313 316 317 318 319 319 320 320 321 321 322 323 323 324 326
304 306 307 307 307 303 300 301 301 301 301 303 304 304 306 314 314 312 312 312 313 313 313 313 313 311 309 309 311 310 311 313 313 314 314 316 319 320 320 320 321 321 322 324 325
302 304 306 307 307 307 301 301 301 301 302 306 304 305 306 312 311 311 311 311 311 312 312 312 311 311 310 310 309 310 310 310 311 311 312 314 315 316 317 317 318 318 319 320 321
309 306 304 306 307 306 301 301 301 301 302 307 304 305 306 306 311 311 310 309 310 311 312 310 310 311 311 309 310 310 309 308 310 311 312 314 314 315 317 317 318 318 319 319 321
309 310 306 305 307 303 302 302 301 302 303 308 305 306 306 313 311 310 310 309 310 310 310 310 310 311 311 310 309 309 306 307 308 311 311 314 314 316 315 315 315 315 316 317 318
309 310 307 305 306 303 302 306 310 310 306 309 309 315 316 315 311 310 310 310 310 310 310 310 310 311 310 307 306 306 307 308 309 309 310 311 311 311 313 313 313 314 314 314 315
308 309 309 305 305 304 311 310 314 313 312 313 314 314 313 314 312 311 311 310 310 310 310 311 310 307 304 305 309 310 309 310 310 311 310 310 310 311 312 313 313 313 313 313 314
309 310 310 305 306 309 311 312 310 311 310 310 312 312 314 312 311 310 310 310 310 309 307 308 306 308 308 307 308 309 310 310 309 310 310 309 310 311 310 311 311 312 313 313 314
309 310 309 305 310 311 312 312 311 310 309 310 310 310 310 312 311 310 311 310 309 308 307 305 307 308 308 308 308 308 308 310 310 312 311 310 311 310 310 310 311 311 312 313 313
309 309 309 305 311 312 312 311 311 311 308 309 311 311 310 311 310 310 311 310 309 307 307 307 308 309 309 310 312 311 312 312 312 312 310 309 310 310 310 310 311 312 312 312 313
308 310 309 305 312 311 312 311 311 311 310 315 312 311 311 311 310 311 311 311 308 307 307 307 308 309 309 311 312 311 312 312 312 311 310 310 310 309 309 309 309 310 311 311 312
309 310 308 309 312 313 312 312 311 312 313 315 310 311 311 310 311 312 311 310 308 308 307 307 308 308 308 311 312 310 312 311 311 309 309 310 308 308 309 308 308 308 311 314 314
309 310 305 311 313 313 312 311 313 313 315 311 310 310 310 310 310 311 310 310 309 307 307 306 308 309 311 312 311 311 310 307 306 308 309 309 309 308 308 308 308 311 314 314 314
306 307 306 309 313 310 309 313 312 313 310 309 309 309 309 310 310 310 309 308 307 308 308 308 307 311 312 311 308 307 306 307 307 307 309 308 309 310 309 310 313 312 313 313 313
309 307 307 309 312 310 312 310 314 313 309 309 309 308 311 311 311 311 310 309 311 307 305 305 306 310 313 310 309 309 306 307 309 310 308 308 309 310 312 313 313 314 313 313 312
311 313 314 314 312 312 312 311 314 311 310 309 308 310 311 311 311 311 310 312 311 310 310 309 310 310 310 309 309 309 309 307 308 307 307 308 309 310 311 313 313 312 312 312 311
314 315 314 314 313 312 308 312 313 311 310 309 308 310 310 311 312 312 312 312 313 311 308 310 311 310 310 310 309 307 307 307 306 311 312 309 310 311 310 310 312 311 311 312 311
312 314 314 311 311 314 310 312 313 311 310 310 309 310 310 312 311 311 311 311 311 312 310 310 309 310 310 309 308 307 309 309 307 308 308 309 310 309 311 312 312 311 311 311 311
312 309 313 311 309 306 309 310 310 310 311 310 309 309 310 311 310 311 311 312 310 311 312 311 308 311 310 309 308 308 308 308 304 305 312 310 311 310 309 308 309 310 311 312 312
311 312 313 312 304 304 304 308 309 311 311 310 309 309 308 309 310 311 312 311 309 309 311 309 308 311 309 307 306 310 311 309 309 307 311 312 310 309 309 309 310 310 311 312 311
308 305 308 309 307 305 306 307 310 310 310 308 309 308 308 309 308 309 310 310 308 309 311 312 308 310 311 309 306 310 310 311 312 313 312 311 310 310 310 309 310 311 311 311 312
304 303 303 300 302 303 304 307 307 309 308 308 307 307 308 307 307 307 308 307 307 307 309 308 309 309 310 311 311 312 312 313 313 313 315 313 311 310 309 309 310 312 312 312 316
302 304 303 303 304 303 303 304 306 307 306 307 306 305 305 304 305 306 306 305 307 307 308 306 308 311 311 310 310 311 311 311 311 311 313 313 312 311 311 311 310 310 310 311 315
300 302 305 302 301 302 301 303 304 304 305 307 304 305 305 305 306 306 306 306 305 306 305 306 306 308 310 311 311 312 311 313 313 313 313 313 312 311 311 310 309 309 309 310 312
Wind_Speed
16 15 14 14 14 14 14 13 11 11 12 13 14 16 18 19 18 16 19 12 6 8 8 8 8 10 9 9 10 5 3 6 6 8 1 16 7 11 11 16 20 11 16 27 5
17 16 15 15 15 14 13 13 12 11 12 13 15 16 17 16 12 6 4 4 7 7 6 5 9 8 6 7 7 5 5 8 5 5 8 21 9 18 11 19 23 20 25 23 12
21 20 18 17 16 15 14 13 11 11 12 14 16 13 13 13 5 9 3 1 2 5 8 8 9 6 5 7 7 4 8 4 5 3 6 16 18 18 13 19 14 23 30 33 19
22 21 21 20 18 16 14 13 12 11 12 15 14 10 9 6 2 5 8 9 7 5 2 2 5 3 3 5 6 4 5 4 5 13 14 15 27 21 27 34 30 26 28 25 20
21 21 21 21 21 19 16 14 12 11 11 13 12 7 6 5 2 5 4 4 4 2 2 1 2 2 2 2 4 4 4 9 15 14 15 22 21 19 36 42 30 28 24 23 20
22 22 22 23 22 21 17 15 12 9 10 11 8 6 3 3 2 1 3 6 6 5 3 1 1 4 2 2 1 4 3 8 6 9 9 9 14 13 41 21 24 27 28 24 26
25 24 23 24 23 20 15 13 11 9 7 8 6 6 7 9 5 2 5 5 9 6 4 4 6 5 1 4 3 5 6 5 5 7 8 10 13 22 35 26 26 22 28 21 21
26 26 25 23 23 18 13 10 8 6 5 6 6 6 7 4 7 7 4 5 4 2 6 6 9 7 3 4 5 2 4 2 5 2 7 14 23 2 8 12 20 22 15 21 23
26 26 25 23 20 16 10 7 7 5 4 5 5 3 5 5 5 5 3 3 4 6 7 10 9 4 0 3 5 5 1 2 6 4 4 7 3 7 14 19 20 23 26 23 25
25 26 24 21 16 10 8 9 6 5 4 1 4 5 3 3 6 7 8 4 4 7 8 2 3 2 3 3 2 3 1 3 4 5 6 12 9 5 14 11 17 21 26 29 32
25 23 22 18 11 7 12 3 8 2 14 9 8 9 11 3 4 6 2 4 2 2 2 2 3 3 10 8 6 4 2 2 4 5 5 7 15 9 9 13 13 20 23 25 26
24 21 17 9 7 7 8 10 9 8 10 19 19 18 19 16 7 12 7 5 2 2 2 5 1 4 4 4 4 4 1 1 4 5 7 10 22 10 3 5 10 18 19 21 29
23 20 13 2 2 4 8 10 7 8 3 10 3 7 9 11 9 9 5 4 2 1 1 3 6 4 3 3 2 1 3 2 3 6 5 7 18 12 3 5 17 14 16 24 30
22 17 10 3 4 4 4 6 9 7 3 4 2 2 5 5 5 10 14 7 1 4 2 4 3 1 3 2 1 2 1 1 5 6 3 5 12 5 8 10 4 13 24 31 27
19 13 5 3 2 2 8 9 5 3 4 2 1 1 3 5 3 4 12 12 6 6 4 6 2 2 4 1 2 4 2 3 3 4 2 2 4 3 14 13 16 11 10 11 15
14 9 2 4 1 6 12 8 1 4 2 2 3 3 2 6 10 5 7 12 3 4 2 8 2 4 4 1 1 3 2 5 4 2 1 7 5 4 2 2 8 6 15 17 21
11 7 4 3 3 10 9 2 4 4 7 5 4 6 2 4 6 3 6 0 1 1 3 3 2 1 3 3 5 5 5 4 4 2 5 3 5 11 16 16 5 9 16 19 21
11 11 8 5 7 9 5 4 6 3 2 3 3 7 3 7 4 7 3 3 6 3 2 3 5 2 1 4 5 4 6 5 5 3 13 6 7 7 6 9 15 16 19 20 25
8 10 6 6 10 11 2 5 3 4 4 4 7 2 2 4 3 6 5 2 3 3 4 2 4 3 3 2 5 2 4 5 3 1 1 5 8 10 18 9 11 13 16 23 28
1 4 9 9 11 10 5 2 2 3 6 3 2 3 2 3 3 4 5 3 3 2 3 3 3 5 3 1 3 5 4 1 2 3 4 5 5 9 12 13 9 11 15 30 33
7 2 11 12 11 5 3 4 3 10 7 3 2 4 3 1 2 2 6 4 2 2 2 4 4 4 3 4 6 2 1 3 2 3 4 3 7 6 8 10 12 14 24 29 33
5 2 6 9 5 2 1 3 5 6 13 4 3 4 4 3 3 5 8 3 9 2 2 4 4 3 9 9 6 5 5 5 4 5 5 3 14 5 15 11 11 20 31 33 31
12 5 4 6 2 3 6 5 4 3 2 3 3 3 5 3 2 4 4 4 4 0 2 4 1 3 6 3 5 1 4 4 3 1 12 7 13 2 9 17 23 22 30 35 28
7 4 3 3 4 2 4 5 5 9 1 1 3 2 4 2 3 4 5 4 15 5 12 8 4 6 6 6 3 9 15 14 12 4 9 15 23 19 19 16 13 24 28 27 21
8 2 3 4 2 2 3 3 4 5 7 7 2 0 3 3 3 8 6 6 12 11 5 4 7 6 10 14 13 17 20 19 17 20 13 17 18 21 16 8 8 17 25 28 20
6 6 5 7 9 6 2 1 3 3 3 4 3 8 7 6 8 11 9 3 6 4 2 1 4 3 8 14 17 20 21 18 21 19 17 16 17 12 6 10 15 19 23 26 18
5 4 4 5 4 2 3 1 4 9 9 3 4 4 5 6 14 23 24 22 12 6 4 4 2 2 8 1 7 12 11 9 5 5 3 8 16 5 10 12 18 24 28 25 16
Wind_Direction
0 357 353 348 343 338 336 335 331 325 320 319 323 326 324 318 306 287 278 272 250 221 225 221 233 230 224 216 209 181 179 210 227 251 274 309 2 299 307 311 322 338 355 352 268
354 353 349 346 342 336 333 330 328 324 322 321 325 328 324 329 325 326 321 238 205 211 224 230 238 230 207 206 207 185 197 215 204 235 318 295 290 305 323 319 302 315 325 355 353
350 347 344 341 337 332 329 324 321 319 320 322 327 327 325 336 349 359 45 114 208 238 238 243 248 219 214 211 201 214 237 193 256 312 313 295 296 309 306 291 281 307 314 323 325
347 345 342 339 333 326 321 318 316 312 317 323 331 326 328 340 116 90 70 80 89 90 101 199 191 209 210 211 213 249 222 192 274 277 278 272 293 290 292 271 288 293 303 310 311
345 341 338 337 333 324 315 309 308 308 313 323 327 326 328 317 253 104 68 47 15 333 303 157 214 227 227 241 294 231 286 287 279 277 273 277 272 275 276 278 289 295 299 297 292
352 344 337 334 331 324 313 304 304 300 309 324 324 324 311 294 157 46 316 319 351 298 300 133 262 323 224 286 185 316 286 286 285 282 262 261 271 265 267 283 294 295 292 288 288
352 348 341 334 331 325 315 306 302 293 304 322 319 310 275 242 214 267 295 321 322 256 269 316 310 302 257 303 287 300 335 343 218 232 228 244 261 240 265 292 293 289 292 297 290
348 345 342 335 333 329 327 316 299 284 286 305 305 302 261 174 213 243 277 300 0 248 264 290 296 271 256 303 353 349 48 28 283 275 256 191 249 281 330 334 314 324 318 304 297
342 343 341 337 336 335 344 338 313 284 250 270 287 281 271 211 217 202 249 287 288 302 281 281 279 226 300 67 2 7 179 218 308 277 273 189 321 346 342 335 321 327 329 331 325
337 339 341 339 341 357 13 35 33 95 69 225 249 302 256 335 227 232 272 222 283 330 325 20 175 162 53 85 233 268 295 272 254 298 334 304 295 298 307 309 306 313 320 324 324
338 337 342 343 359 41 53 38 21 7 319 265 272 263 285 330 268 277 196 265 225 348 11 352 75 222 241 209 230 268 256 235 265 335 349 282 299 315 285 296 292 305 314 317 320
337 335 342 349 27 54 55 48 46 333 302 295 265 259 259 276 296 279 267 196 196 263 350 13 225 217 235 209 206 228 191 325 275 329 333 310 297 299 262 256 297 306 309 311 313
337 333 339 347 71 43 75 35 353 339 312 299 269 238 234 234 233 253 211 205 211 264 169 169 245 295 9 48 68 97 124 322 277 313 288 314 292 297 231 292 303 293 307 315 312
337 330 334 151 140 104 29 359 346 355 61 277 260 274 203 218 250 253 240 218 214 216 236 234 266 54 15 173 132 337 119 357 328 11 311 56 291 252 272 289 279 285 290 292 302
339 329 326 137 151 12 329 320 325 317 55 174 118 342 217 201 308 263 228 205 206 211 108 259 267 342 332 216 157 239 349 327 299 294 9 254 284 110 324 289 278 297 328 319 321
348 344 329 153 105 329 321 320 287 51 30 19 31 355 328 244 249 248 207 215 235 178 230 246 164 167 206 211 305 60 34 16 30 46 313 230 207 326 230 317 318 291 297 311 316
8 31 85 136 333 320 322 293 42 79 316 15 332 324 16 310 342 215 193 111 239 168 280 316 350 71 101 27 8 65 51 346 339 358 241 275 272 264 299 299 297 282 296 308 313
52 74 85 63 349 346 346 57 68 330 5 315 299 308 128 17 1 335 99 139 24 73 98 141 321 118 119 196 211 228 156 162 254 240 283 277 253 255 236 232 273 276 284 300 309
74 64 44 17 9 1 354 59 149 328 343 303 313 281 328 36 349 11 8 16 64 35 145 156 259 282 213 169 129 199 176 208 232 108 346 228 268 291 265 237 264 271 277 290 310
12 21 17 5 350 340 71 207 259 320 316 249 239 338 304 351 330 57 333 330 165 193 154 167 290 255 266 130 264 161 190 2 9 284 252 262 259 252 275 278 282 288 291 302 309
344 351 1 352 336 356 108 242 282 323 7 320 255 267 263 202 312 304 224 251 83 182 114 172 158 278 359 227 201 307 242 91 131 170 224 288 261 221 255 273 277 284 285 288 303
0 25 336 351 27 27 308 287 300 308 340 273 202 212 222 238 248 247 243 204 353 141 254 186 145 230 233 269 239 185 227 158 132 260 224 226 270 229 259 285 296 283 288 289 295
338 300 330 332 84 328 314 296 270 294 306 358 320 33 13 250 269 252 245 220 48 43 184 183 181 311 321 6 5 188 200 206 209 263 245 252 268 286 309 305 298 292 291 289 295
355 348 325 60 83 83 342 275 318 314 251 324 273 53 19 280 220 283 299 291 343 314 311 181 166 190 233 240 193 285 271 265 251 236 261 230 271 274 285 290 309 317 311 302 310
10 5 345 305 338 344 256 271 303 354 326 322 304 133 228 271 272 259 251 296 294 276 281 147 203 211 241 261 275 268 270 271 258 258 250 273 260 280 283 297 321 340 342 340 352
16 5 335 295 305 326 336 48 300 334 282 275 340 310 287 222 227 291 299 241 236 294 219 190 253 219 267 269 260 269 267 259 267 262 255 269 275 270 312 316 331 332 324 313 311
14 328 326 292 319 333 248 32 304 311 286 272 321 296 283 264 303 286 269 256 239 190 173 174 185 55 280 322 300 280 257 210 248 213 252 281 275 308 327 329 318 310 304 296 322